Total_Precipitation_Accumulation
1.16 1.42 1.86 2.57 2.86 3.35 3.29 2.93 2.71 2.65 2.61 2.58 2.62 2.65 2.83 3.03 3.18 3.25 3.09 3.02 2.95 2.94 3.07 3.01 2.92 2.74 2.68 2.68 2.62 2.48 2.39 2.25 2.19 2.08 1.83 1.49 1.18 1.05 1.01 1.06 1.07 1.02 1.01
1.25 1.64 2.02 2.40 2.62 2.74 2.83 3.05 3.05 2.96 2.84 2.89 3.18 3.60 3.84 3.89 3.97 3.92 3.85 3.71 3.62 3.55 3.49 3.40 3.15 2.91 2.74 2.59 2.46 2.32 2.22 2.10 2.06 2.06 2.01 1.74 1.45 1.13 0.91 0.99 1.02 0.99 1.01
1.19 1.49 1.84 2.11 2.44 2.77 2.88 3.09 3.18 3.29 3.45 3.66 3.88 4.35 4.67 4.66 4.51 4.14 3.96 3.77 3.51 3.37 3.27 3.18 3.05 2.85 2.67 2.51 2.46 2.37 2.28 2.15 2.11 2.10 2.14 1.99 1.64 1.26 1.02 0.92 0.95 0.98 1.01
1.22 1.35 1.51 1.69 1.97 2.29 2.60 2.85 3.03 3.29 3.71 4.29 4.62 4.74 4.92 4.86 4.70 4.37 3.99 3.61 3.30 3.07 2.93 2.93 2.90 2.78 2.60 2.43 2.28 2.23 2.22 2.23 2.14 2.02 1.84 1.71 1.51 1.42 1.26 1.09 1.01 0.96 0.97
1.15 1.21 1.17 1.30 1.61 1.89 2.12 2.47 2.81 3.19 3.74 4.23 4.66 4.90 4.88 4.67 4.48 4.07 3.66 3.33 3.08 2.81 2.67 2.65 2.56 2.40 2.27 2.13 1.99 1.92 1.93 1.95 1.93 1.88 1.79 1.73 1.58 1.44 1.35 1.26 1.16 1.09 1.01
0.94 0.96 0.99 1.07 1.30 1.51 1.75 2.02 2.42 2.99 3.42 3.83 4.25 4.40 4.42 4.29 4.08 3.67 3.33 3.07 2.86 2.63 2.39 2.17 2.09 2.05 1.90 1.68 1.55 1.51 1.50 1.53 1.57 1.63 1.60 1.52 1.51 1.48 1.44 1.35 1.25 1.20 1.16
0.82 0.88 0.89 1.02 1.26 1.46 1.72 1.95 2.29 2.68 2.90 3.04 3.28 3.52 3.57 3.54 3.50 3.34 3.05 2.75 2.47 2.15 1.93 1.74 1.63 1.59 1.57 1.47 1.34 1.27 1.20 1.19 1.24 1.28 1.38 1.40 1.37 1.33 1.38 1.44 1.42 1.31 1.21
0.92 0.95 1.02 1.15 1.38 1.51 1.57 1.70 1.88 2.14 2.27 2.27 2.43 2.64 2.75 2.78 2.75 2.61 2.38 2.12 1.90 1.70 1.49 1.36 1.25 1.16 1.08 1.05 1.05 1.09 1.08 1.06 1.10 1.12 1.21 1.28 1.28 1.28 1.29 1.32 1.43 1.44 1.30
0.95 1.00 1.03 1.14 1.37 1.45 1.50 1.46 1.42 1.52 1.61 1.67 1.73 1.77 1.82 1.87 1.87 1.79 1.66 1.54 1.41 1.26 1.14 1.06 1.00 0.95 0.90 0.86 0.85 0.88 0.93 0.94 0.96 0.99 1.04 1.09 1.07 1.09 1.14 1.19 1.26 1.35 1.32
0.96 1.01 1.00 1.02 1.07 1.12 1.21 1.20 1.08 1.11 1.16 1.14 1.13 1.17 1.26 1.36 1.35 1.21 1.14 1.11 1.06 0.98 0.89 0.84 0.83 0.80 0.77 0.76 0.80 0.80 0.80 0.81 0.80 0.79 0.78 0.78 0.77 0.80 0.83 0.90 0.99 1.09 1.17
0.95 0.92 0.91 0.85 0.79 0.77 0.84 0.91 0.88 0.86 0.86 0.87 0.90 0.89 0.91 0.95 0.98 0.94 0.86 0.81 0.77 0.74 0.73 0.68 0.65 0.65 0.66 0.65 0.67 0.63 0.60 0.58 0.58 0.57 0.59 0.64 0.64 0.67 0.69 0.71 0.82 0.98 1.09
0.98 0.93 0.92 0.86 0.80 0.75 0.75 0.76 0.78 0.80 0.77 0.73 0.76 0.77 0.74 0.71 0.72 0.75 0.74 0.69 0.67 0.66 0.65 0.59 0.53 0.51 0.49 0.47 0.45 0.44 0.44 0.46 0.48 0.49 0.52 0.55 0.57 0.59 0.62 0.67 0.75 0.87 1.04
1.18 1.09 1.00 0.94 0.88 0.80 0.74 0.69 0.71 0.75 0.72 0.66 0.67 0.65 0.64 0.60 0.59 0.60 0.59 0.57 0.57 0.57 0.55 0.52 0.49 0.44 0.43 0.40 0.36 0.37 0.38 0.40 0.41 0.45 0.50 0.55 0.63 0.65 0.67 0.72 0.75 0.81 0.90
1.29 1.16 1.06 0.97 0.89 0.84 0.80 0.77 0.74 0.71 0.65 0.63 0.62 0.60 0.62 0.60 0.56 0.53 0.52 0.51 0.51 0.54 0.56 0.55 0.45 0.37 0.33 0.32 0.31 0.30 0.32 0.34 0.37 0.42 0.49 0.56 0.66 0.73 0.75 0.74 0.77 0.82 0.91
1.35 1.22 1.18 1.11 1.00 0.96 0.92 0.86 0.79 0.74 0.67 0.63 0.62 0.63 0.66 0.66 0.64 0.62 0.60 0.58 0.55 0.51 0.49 0.50 0.47 0.41 0.33 0.29 0.28 0.28 0.31 0.37 0.43 0.45 0.47 0.52 0.63 0.72 0.68 0.64 0.67 0.79 0.97
1.53 1.54 1.55 1.48 1.33 1.18 1.09 0.98 0.88 0.82 0.75 0.75 0.74 0.71 0.68 0.65 0.64 0.63 0.61 0.62 0.59 0.55 0.49 0.46 0.46 0.43 0.32 0.32 0.31 0.29 0.34 0.41 0.47 0.50 0.51 0.48 0.51 0.51 0.51 0.57 0.63 0.72 0.93
1.84 1.85 1.78 1.66 1.49 1.37 1.30 1.20 1.07 0.97 0.92 0.90 0.84 0.76 0.68 0.65 0.62 0.55 0.58 0.62 0.59 0.54 0.48 0.44 0.45 0.44 0.37 0.34 0.32 0.31 0.36 0.46 0.52 0.55 0.55 0.45 0.40 0.47 0.52 0.56 0.61 0.72 0.85
1.74 1.72 1.63 1.54 1.45 1.39 1.31 1.18 1.06 0.99 0.93 0.89 0.82 0.71 0.63 0.63 0.63 0.62 0.62 0.60 0.56 0.52 0.52 0.50 0.48 0.45 0.37 0.33 0.33 0.32 0.37 0.48 0.51 0.51 0.52 0.55 0.53 0.50 0.52 0.56 0.66 0.81 0.93
1.61 1.64 1.63 1.56 1.50 1.41 1.27 1.17 1.08 0.96 0.92 0.87 0.74 0.61 0.54 0.55 0.56 0.56 0.54 0.52 0.52 0.50 0.46 0.42 0.43 0.46 0.42 0.36 0.33 0.31 0.38 0.45 0.47 0.46 0.45 0.44 0.46 0.50 0.61 0.73 0.94 1.07 1.18
1.48 1.61 1.71 1.74 1.66 1.51 1.25 1.15 1.06 0.92 0.80 0.68 0.58 0.53 0.50 0.46 0.43 0.42 0.46 0.47 0.48 0.45 0.38 0.36 0.38 0.39 0.37 0.27 0.24 0.26 0.33 0.41 0.44 0.48 0.50 0.44 0.41 0.52 0.68 0.91 1.17 1.29 1.36
1.48 1.58 1.61 1.59 1.53 1.41 1.22 1.12 1.00 0.85 0.67 0.54 0.49 0.49 0.42 0.34 0.31 0.35 0.41 0.42 0.38 0.37 0.36 0.37 0.34 0.30 0.23 0.20 0.18 0.19 0.23 0.32 0.41 0.48 0.56 0.56 0.50 0.57 0.77 0.97 1.15 1.31 1.33
1.34 1.40 1.37 1.32 1.20 1.11 1.04 0.99 0.88 0.67 0.52 0.47 0.46 0.44 0.37 0.23 0.21 0.30 0.34 0.33 0.36 0.35 0.32 0.33 0.31 0.26 0.23 0.16 0.15 0.16 0.16 0.19 0.35 0.52 0.56 0.58 0.57 0.62 0.82 0.98 1.21 1.42 1.48
1.08 1.09 1.02 0.95 0.93 0.87 0.84 0.79 0.66 0.50 0.44 0.43 0.44 0.39 0.33 0.27 0.21 0.25 0.28 0.28 0.30 0.26 0.23 0.24 0.26 0.23 0.24 0.18 0.11 0.12 0.13 0.15 0.26 0.41 0.47 0.53 0.57 0.74 1.04 1.21 1.36 1.52 1.60
0.84 0.81 0.77 0.72 0.71 0.68 0.64 0.58 0.46 0.41 0.43 0.45 0.42 0.39 0.37 0.31 0.23 0.21 0.17 0.19 0.22 0.23 0.22 0.23 0.25 0.24 0.24 0.18 0.14 0.16 0.18 0.19 0.26 0.40 0.52 0.62 0.70 0.90 1.21 1.40 1.57 1.61 1.50
0.58 0.56 0.58 0.56 0.51 0.47 0.45 0.41 0.36 0.34 0.41 0.38 0.32 0.29 0.26 0.25 0.24 0.19 0.11 0.10 0.11 0.10 0.14 0.16 0.16 0.19 0.19 0.12 0.14 0.16 0.16 0.18 0.22 0.36 0.55 0.72 0.85 1.05 1.27 1.43 1.47 1.44 1.33
0.46 0.49 0.50 0.48 0.46 0.42 0.36 0.30 0.25 0.26 0.33 0.31 0.25 0.20 0.17 0.16 0.16 0.20 0.15 0.06 0.04 0.04 0.05 0.06 0.06 0.08 0.10 0.09 0.12 0.14 0.17 0.21 0.26 0.37 0.57 0.70 0.80 0.99 1.20 1.33 1.30 1.19 1.12